Time,TemperatureF,DewpointF,PressureIn,WindDirection,WindDirectionDegrees,WindSpeedMPH,WindSpeedGustMPH,Humidity,HourlyPrecipIn,Conditions,Clouds,dailyrainin,SoftwareType,DateUTC
2013-03-30 00:00:00,34.6,26.4,29.88,WSW,248,0.2,1.1,72,0.00,,,0.00,WUHU216HW,2013-03-30 04:00:00,
2013-03-30 00:05:00,34.2,25.8,29.88,WSW,248,0.0,1.1,71,0.00,,,0.00,WUHU216HW,2013-03-30 04:05:00,
2013-03-30 00:10:00,34.2,25.8,29.88,WSW,248,0.7,0.9,71,0.00,,,0.00,WUHU216HW,2013-03-30 04:10:00,
2013-03-30 00:15:00,34.0,25.6,29.88,WSW,248,0.0,1.3,71,0.00,,,0.00,WUHU216HW,2013-03-30 04:15:00,
2013-03-30 00:20:00,33.8,25.7,29.88,WSW,248,0.7,1.3,72,0.00,,,0.00,WUHU216HW,2013-03-30 04:20:00,
2013-03-30 00:25:00,33.7,25.5,29.88,West,270,1.6,1.8,72,0.00,,,0.00,WUHU216HW,2013-03-30 04:25:00,
2013-03-30 00:30:00,33.5,25.4,29.88,WSW,248,0.9,1.8,72,0.00,,,0.00,WUHU216HW,2013-03-30 04:30:00,
2013-03-30 00:35:00,33.5,25.7,29.88,WSW,248,0.4,1.6,73,0.00,,,0.00,WUHU216HW,2013-03-30 04:35:00,
2013-03-30 00:40:00,33.1,25.4,29.88,WSW,248,0.0,1.3,73,0.00,,,0.00,WUHU216HW,2013-03-30 04:40:00,
2013-03-30 00:45:00,33.1,25.4,29.88,WSW,248,0.0,0.4,73,0.00,,,0.00,WUHU216HW,2013-03-30 04:45:00,
2013-03-30 00:50:00,32.8,25.0,29.88,WSW,248,0.0,0.0,73,0.00,,,0.00,WUHU216HW,2013-03-30 04:50:00,
2013-03-30 00:55:00,32.8,25.0,29.88,SW,225,1.6,1.6,73,0.00,,,0.00,WUHU216HW,2013-03-30 04:55:00,
2013-03-30 01:00:00,32.4,24.7,29.88,WSW,248,1.1,1.6,73,0.00,,,0.00,WUHU216HW,2013-03-30 05:00:00,
2013-03-30 01:05:00,32.2,24.8,29.88,WSW,248,1.1,1.8,74,0.00,,,0.00,WUHU216HW,2013-03-30 05:05:00,
2013-03-30 01:10:00,32.0,24.7,29.88,West,270,0.9,1.8,74,0.00,,,0.00,WUHU216HW,2013-03-30 05:10:00,
2013-03-30 01:15:00,32.0,24.7,29.88,West,270,1.6,2.0,74,0.00,,,0.00,WUHU216HW,2013-03-30 05:15:00,
2013-03-30 01:20:00,31.9,24.8,29.88,West,270,0.7,2.0,75,0.00,,,0.00,WUHU216HW,2013-03-30 05:20:00,
2013-03-30 01:25:00,31.7,24.7,29.88,WSW,248,0.9,1.8,75,0.00,,,0.00,WUHU216HW,2013-03-30 05:25:00,
2013-03-30 01:30:00,31.7,24.7,29.88,West,270,0.0,1.8,75,0.00,,,0.00,WUHU216HW,2013-03-30 05:30:00,
2013-03-30 01:35:00,31.7,24.7,29.88,West,270,0.9,1.1,75,0.00,,,0.00,WUHU216HW,2013-03-30 05:35:00,
2013-03-30 01:40:00,31.7,24.7,29.88,WNW,293,1.6,1.8,75,0.00,,,0.00,WUHU216HW,2013-03-30 05:40:00,
2013-03-30 01:45:00,31.5,24.5,29.88,West,270,1.8,1.8,75,0.00,,,0.00,WUHU216HW,2013-03-30 05:45:00,
2013-03-30 01:50:00,31.5,24.9,29.88,West,270,0.7,2.0,76,0.00,,,0.00,WUHU216HW,2013-03-30 05:50:00,
2013-03-30 01:55:00,31.5,24.9,29.88,West,270,0.2,2.0,76,0.00,,,0.00,WUHU216HW,2013-03-30 05:55:00,
2013-03-30 02:00:00,31.5,24.9,29.88,WSW,248,0.0,0.7,76,0.00,,,0.00,WUHU216HW,2013-03-30 06:00:00,
2013-03-30 02:05:00,31.3,24.7,29.88,WSW,248,0.0,0.2,76,0.00,,,0.00,WUHU216HW,2013-03-30 06:05:00,
2013-03-30 02:10:00,31.3,24.7,29.88,SW,225,0.0,0.2,76,0.00,,,0.00,WUHU216HW,2013-03-30 06:10:00,
2013-03-30 02:15:00,31.1,24.5,29.88,SW,225,0.0,0.2,76,0.00,,,0.00,WUHU216HW,2013-03-30 06:15:00,
2013-03-30 02:20:00,30.8,24.1,29.88,SSE,158,0.0,0.0,76,0.00,,,0.00,WUHU216HW,2013-03-30 06:20:00,
2013-03-30 02:25:00,30.6,24.0,29.88,SW,225,0.0,0.0,76,0.00,,,0.00,WUHU216HW,2013-03-30 06:25:00,
2013-03-30 02:30:00,30.6,24.0,29.88,SW,225,0.0,0.0,76,0.00,,,0.00,WUHU216HW,2013-03-30 06:30:00,
2013-03-30 02:35:00,30.2,23.6,29.89,East,90,0.0,1.1,76,0.00,,,0.00,WUHU216HW,2013-03-30 06:35:00,
2013-03-30 02:40:00,30.1,23.7,29.88,WSW,248,1.1,1.8,77,0.00,,,0.00,WUHU216HW,2013-03-30 06:40:00,
2013-03-30 02:45:00,30.1,23.7,29.88,WSW,248,1.1,1.8,77,0.00,,,0.00,WUHU216HW,2013-03-30 06:45:00,
2013-03-30 02:50:00,30.1,23.7,29.88,West,270,0.4,1.6,77,0.00,,,0.00,WUHU216HW,2013-03-30 06:50:00,
2013-03-30 02:55:00,29.9,23.5,29.88,WSW,248,0.0,1.1,77,0.00,,,0.00,WUHU216HW,2013-03-30 06:55:00,
2013-03-30 03:00:00,29.9,23.2,29.88,WSW,248,1.6,2.5,76,0.00,,,0.00,WUHU216HW,2013-03-30 07:00:00,
2013-03-30 03:05:00,29.7,23.3,29.88,SW,225,0.7,2.5,77,0.00,,,0.00,WUHU216HW,2013-03-30 07:05:00,
2013-03-30 03:10:00,29.7,23.3,29.88,SW,225,0.2,2.5,77,0.00,,,0.00,WUHU216HW,2013-03-30 07:10:00,
2013-03-30 03:15:00,29.7,23.3,29.88,SW,225,1.1,1.8,77,0.00,,,0.00,WUHU216HW,2013-03-30 07:15:00,
2013-03-30 03:20:00,29.5,23.1,29.88,WSW,248,0.4,1.6,77,0.00,,,0.00,WUHU216HW,2013-03-30 07:20:00,
2013-03-30 03:25:00,29.5,23.1,29.88,WSW,248,0.9,1.6,77,0.00,,,0.00,WUHU216HW,2013-03-30 07:25:00,
2013-03-30 03:30:00,29.5,23.5,29.88,WSW,248,2.0,2.5,78,0.00,,,0.00,WUHU216HW,2013-03-30 07:30:00,
2013-03-30 03:35:00,29.5,23.5,29.88,SW,225,1.6,2.5,78,0.00,,,0.00,WUHU216HW,2013-03-30 07:35:00,
2013-03-30 03:40:00,29.5,23.5,29.88,SW,225,1.1,2.2,78,0.00,,,0.00,WUHU216HW,2013-03-30 07:40:00,
2013-03-30 03:45:00,29.5,23.5,29.88,WSW,248,1.6,2.2,78,0.00,,,0.00,WUHU216HW,2013-03-30 07:45:00,
2013-03-30 03:50:00,29.5,23.5,29.88,WSW,248,1.8,2.0,78,0.00,,,0.00,WUHU216HW,2013-03-30 07:50:00,
2013-03-30 03:55:00,29.3,23.3,29.88,WSW,248,1.3,2.0,78,0.00,,,0.00,WUHU216HW,2013-03-30 07:55:00,
2013-03-30 04:00:00,29.5,23.5,29.88,SW,225,1.8,2.0,78,0.00,,,0.00,WUHU216HW,2013-03-30 08:00:00,
2013-03-30 04:05:00,29.5,23.5,29.88,SW,225,1.1,2.0,78,0.00,,,0.00,WUHU216HW,2013-03-30 08:05:00,
2013-03-30 04:10:00,29.5,23.8,29.88,West,270,1.1,1.8,79,0.00,,,0.00,WUHU216HW,2013-03-30 08:10:00,
2013-03-30 04:15:00,29.5,23.8,29.88,WSW,248,1.6,1.8,79,0.00,,,0.00,WUHU216HW,2013-03-30 08:15:00,
2013-03-30 04:20:00,29.5,23.8,29.88,WSW,248,0.9,1.8,79,0.00,,,0.00,WUHU216HW,2013-03-30 08:20:00,
2013-03-30 04:25:00,29.7,23.9,29.88,WNW,293,1.8,1.8,79,0.00,,,0.00,WUHU216HW,2013-03-30 08:25:00,
2013-03-30 04:30:00,29.7,23.9,29.88,NW,315,2.0,2.0,79,0.00,,,0.00,WUHU216HW,2013-03-30 08:30:00,
2013-03-30 04:35:00,29.7,23.9,29.88,WNW,293,1.8,2.0,79,0.00,,,0.00,WUHU216HW,2013-03-30 08:35:00,
2013-03-30 04:40:00,29.9,23.9,29.88,WNW,293,1.8,2.0,78,0.00,,,0.00,WUHU216HW,2013-03-30 08:40:00,
2013-03-30 04:45:00,29.9,23.9,29.88,WNW,293,2.5,2.5,78,0.00,,,0.00,WUHU216HW,2013-03-30 08:45:00,
2013-03-30 04:50:00,30.1,24.0,29.88,NW,315,1.8,2.5,78,0.00,,,0.00,WUHU216HW,2013-03-30 08:50:00,
2013-03-30 04:55:00,30.1,24.0,29.88,WNW,293,1.8,2.5,78,0.00,,,0.00,WUHU216HW,2013-03-30 08:55:00,
2013-03-30 05:00:00,30.2,24.2,29.88,West,270,1.6,2.5,78,0.00,,,0.00,WUHU216HW,2013-03-30 09:00:00,
2013-03-30 05:05:00,30.2,24.2,29.88,West,270,1.1,2.2,78,0.00,,,0.00,WUHU216HW,2013-03-30 09:05:00,
2013-03-30 05:10:00,30.2,24.2,29.88,WSW,248,1.1,2.0,78,0.00,,,0.00,WUHU216HW,2013-03-30 09:10:00,
2013-03-30 05:15:00,30.2,24.2,29.88,WSW,248,1.1,1.8,78,0.00,,,0.00,WUHU216HW,2013-03-30 09:15:00,
2013-03-30 05:20:00,30.2,24.2,29.88,WSW,248,0.4,1.3,78,0.00,,,0.00,WUHU216HW,2013-03-30 09:20:00,
2013-03-30 05:25:00,30.1,24.0,29.88,West,270,1.3,1.3,78,0.00,,,0.00,WUHU216HW,2013-03-30 09:25:00,
2013-03-30 05:30:00,30.1,24.0,29.88,SW,225,1.3,1.6,78,0.00,,,0.00,WUHU216HW,2013-03-30 09:30:00,
2013-03-30 05:34:00,29.9,23.9,29.88,WSW,248,1.3,1.8,78,0.00,,,0.00,WUHU216HW,2013-03-30 09:34:00,
2013-03-30 05:39:00,29.9,23.9,29.88,SW,225,1.6,2.5,78,0.00,,,0.00,WUHU216HW,2013-03-30 09:39:00,
2013-03-30 05:44:00,29.9,23.9,29.88,SW,225,1.1,2.5,78,0.00,,,0.00,WUHU216HW,2013-03-30 09:44:00,
2013-03-30 05:49:00,29.9,23.9,29.88,WSW,248,1.6,1.6,78,0.00,,,0.00,WUHU216HW,2013-03-30 09:49:00,
2013-03-30 05:54:00,29.9,23.9,29.88,SSW,203,0.9,1.8,78,0.00,,,0.00,WUHU216HW,2013-03-30 09:54:00,
2013-03-30 05:59:00,29.7,23.7,29.88,SSW,203,0.9,2.0,78,0.00,,,0.00,WUHU216HW,2013-03-30 09:59:00,
2013-03-30 06:04:00,29.5,23.5,29.89,NW,315,1.1,2.0,78,0.00,,,0.00,WUHU216HW,2013-03-30 10:04:00,
2013-03-30 06:09:00,29.3,23.3,29.89,NW,315,1.1,1.8,78,0.00,,,0.00,WUHU216HW,2013-03-30 10:09:00,
2013-03-30 06:14:00,29.2,23.1,29.89,NW,315,1.3,1.8,78,0.00,,,0.00,WUHU216HW,2013-03-30 10:14:00,
2013-03-30 06:19:00,29.2,23.1,29.89,West,270,0.7,1.8,78,0.00,,,0.00,WUHU216HW,2013-03-30 10:19:00,
2013-03-30 06:24:00,29.0,23.0,29.89,SW,225,1.8,1.8,78,0.00,,,0.00,WUHU216HW,2013-03-30 10:24:00,
2013-03-30 06:29:00,29.0,23.3,29.89,WSW,248,1.1,1.8,79,0.00,,,0.00,WUHU216HW,2013-03-30 10:29:00,
2013-03-30 06:34:00,29.0,23.3,29.89,West,270,1.1,1.8,79,0.00,,,0.00,WUHU216HW,2013-03-30 10:34:00,
2013-03-30 06:39:00,29.0,23.3,29.89,WSW,248,0.9,1.6,79,0.00,,,0.00,WUHU216HW,2013-03-30 10:39:00,
2013-03-30 06:44:00,28.8,23.1,29.89,WSW,248,1.1,1.6,79,0.00,,,0.00,WUHU216HW,2013-03-30 10:44:00,
2013-03-30 06:49:00,28.6,23.0,29.89,WSW,248,0.7,1.3,79,0.00,,,0.00,WUHU216HW,2013-03-30 10:49:00,
2013-03-30 06:54:00,28.6,23.0,29.90,WSW,248,1.1,1.3,79,0.00,,,0.00,WUHU216HW,2013-03-30 10:54:00,
2013-03-30 06:59:00,28.4,22.8,29.89,SW,225,1.6,1.6,79,0.00,,,0.00,WUHU216HW,2013-03-30 10:59:00,
2013-03-30 07:04:00,28.4,22.8,29.89,SW,225,1.1,1.6,79,0.00,,,0.00,WUHU216HW,2013-03-30 11:04:00,
2013-03-30 07:09:00,28.4,22.8,29.90,SW,225,1.1,1.6,79,0.00,,,0.00,WUHU216HW,2013-03-30 11:09:00,
2013-03-30 07:14:00,28.4,22.8,29.90,WSW,248,1.1,2.0,79,0.00,,,0.00,WUHU216HW,2013-03-30 11:14:00,
2013-03-30 07:19:00,28.4,22.8,29.90,WSW,248,1.6,2.0,79,0.00,,,0.00,WUHU216HW,2013-03-30 11:19:00,
2013-03-30 07:24:00,28.4,23.0,29.90,WSW,248,1.8,2.0,80,0.00,,,0.00,WUHU216HW,2013-03-30 11:24:00,
2013-03-30 07:29:00,28.4,23.0,29.90,SW,225,2.0,2.5,80,0.00,,,0.00,WUHU216HW,2013-03-30 11:29:00,
2013-03-30 07:34:00,28.6,23.2,29.90,WSW,248,1.6,2.7,80,0.00,,,0.00,WUHU216HW,2013-03-30 11:34:00,
2013-03-30 07:39:00,28.8,23.4,29.90,WSW,248,1.8,2.7,80,0.00,,,0.00,WUHU216HW,2013-03-30 11:39:00,
2013-03-30 07:44:00,29.2,23.8,29.90,West,270,0.9,2.5,80,0.00,,,0.00,WUHU216HW,2013-03-30 11:44:00,
2013-03-30 07:49:00,29.3,23.9,29.90,SW,225,1.8,2.5,80,0.00,,,0.00,WUHU216HW,2013-03-30 11:49:00,
2013-03-30 07:54:00,29.7,24.3,29.90,SW,225,1.1,2.5,80,0.00,,,0.00,WUHU216HW,2013-03-30 11:54:00,
2013-03-30 07:59:00,29.9,24.5,29.91,WSW,248,1.3,2.5,80,0.00,,,0.00,WUHU216HW,2013-03-30 11:59:00,
2013-03-30 08:04:00,30.2,24.8,29.91,West,270,0.2,2.5,80,0.00,,,0.00,WUHU216HW,2013-03-30 12:04:00,
2013-03-30 08:09:00,30.6,25.2,29.91,WSW,248,1.6,2.5,80,0.00,,,0.00,WUHU216HW,2013-03-30 12:09:00,
2013-03-30 08:14:00,31.0,25.6,29.91,WSW,248,1.1,2.2,80,0.00,,,0.00,WUHU216HW,2013-03-30 12:14:00,
2013-03-30 08:19:00,31.3,25.9,29.91,NW,315,0.4,2.9,80,0.00,,,0.00,WUHU216HW,2013-03-30 12:19:00,
2013-03-30 08:24:00,31.7,26.3,29.91,WSW,248,1.1,3.6,80,0.00,,,0.00,WUHU216HW,2013-03-30 12:24:00,
2013-03-30 08:29:00,32.0,26.6,29.91,SW,225,0.7,3.6,80,0.00,,,0.00,WUHU216HW,2013-03-30 12:29:00,
2013-03-30 08:34:00,32.6,27.1,29.91,NW,315,0.4,2.5,80,0.00,,,0.00,WUHU216HW,2013-03-30 12:34:00,
2013-03-30 08:39:00,32.9,27.5,29.91,WSW,248,2.5,2.5,80,0.00,,,0.00,WUHU216HW,2013-03-30 12:39:00,
2013-03-30 08:44:00,33.3,27.8,29.91,WNW,293,1.6,4.7,80,0.00,,,0.00,WUHU216HW,2013-03-30 12:44:00,
2013-03-30 08:49:00,33.8,28.3,29.90,WNW,293,4.0,4.7,80,0.00,,,0.00,WUHU216HW,2013-03-30 12:49:00,
2013-03-30 08:54:00,34.2,28.6,29.91,WNW,293,3.8,5.8,80,0.00,,,0.00,WUHU216HW,2013-03-30 12:54:00,
2013-03-30 08:59:00,34.7,28.8,29.91,West,270,1.3,5.8,79,0.00,,,0.00,WUHU216HW,2013-03-30 12:59:00,
2013-03-30 09:04:00,35.3,29.3,29.91,West,270,3.6,5.4,79,0.00,,,0.00,WUHU216HW,2013-03-30 13:04:00,
2013-03-30 09:09:00,35.6,29.4,29.91,NW,315,5.8,6.3,78,0.00,,,0.00,WUHU216HW,2013-03-30 13:09:00,
2013-03-30 09:14:00,36.0,29.8,29.91,NW,315,5.4,6.5,78,0.00,,,0.00,WUHU216HW,2013-03-30 13:14:00,
2013-03-30 09:19:00,36.4,30.2,29.91,NW,315,3.4,7.2,78,0.00,,,0.00,WUHU216HW,2013-03-30 13:19:00,
2013-03-30 09:24:00,36.9,30.7,29.91,West,270,2.5,7.2,78,0.00,,,0.00,WUHU216HW,2013-03-30 13:24:00,
2013-03-30 09:29:00,37.1,30.5,29.91,WNW,293,4.7,6.5,77,0.00,,,0.00,WUHU216HW,2013-03-30 13:29:00,
2013-03-30 09:34:00,37.4,30.9,29.91,NW,315,4.9,6.9,77,0.00,,,0.00,WUHU216HW,2013-03-30 13:34:00,
2013-03-30 09:39:00,37.8,30.9,29.91,NW,315,4.0,6.9,76,0.00,,,0.00,WUHU216HW,2013-03-30 13:39:00,
2013-03-30 09:44:00,38.2,31.2,29.91,NW,315,4.3,6.3,76,0.00,,,0.00,WUHU216HW,2013-03-30 13:44:00,
2013-03-30 09:49:00,38.3,31.4,29.91,West,270,3.1,5.6,76,0.00,,,0.00,WUHU216HW,2013-03-30 13:49:00,
2013-03-30 09:54:00,38.7,32.1,29.91,NW,315,2.9,4.5,77,0.00,,,0.00,WUHU216HW,2013-03-30 13:54:00,
2013-03-30 09:59:00,39.2,32.3,29.91,NW,315,3.8,5.6,76,0.00,,,0.00,WUHU216HW,2013-03-30 13:59:00,
2013-03-30 10:04:00,39.4,32.5,29.91,WNW,293,6.3,6.3,76,0.00,,,0.00,WUHU216HW,2013-03-30 14:04:00,
2013-03-30 10:09:00,39.6,32.7,29.91,NNW,338,1.8,6.3,76,0.00,,,0.00,WUHU216HW,2013-03-30 14:09:00,
2013-03-30 10:14:00,40.0,32.7,29.91,WNW,293,4.0,6.3,75,0.00,,,0.00,WUHU216HW,2013-03-30 14:14:00,
2013-03-30 10:19:00,40.5,33.1,29.91,NW,315,2.5,4.0,75,0.00,,,0.00,WUHU216HW,2013-03-30 14:19:00,
2013-03-30 10:24:00,40.7,33.0,29.91,West,270,3.4,4.3,74,0.00,,,0.00,WUHU216HW,2013-03-30 14:24:00,
2013-03-30 10:29:00,41.0,33.3,29.90,NNW,338,2.9,5.4,74,0.00,,,0.00,WUHU216HW,2013-03-30 14:29:00,
2013-03-30 10:34:00,41.2,33.5,29.90,NNW,338,5.1,5.4,74,0.00,,,0.00,WUHU216HW,2013-03-30 14:34:00,
2013-03-30 10:39:00,41.4,33.4,29.90,West,270,2.9,5.1,73,0.00,,,0.00,WUHU216HW,2013-03-30 14:39:00,
2013-03-30 10:44:00,41.8,33.4,29.90,East,90,1.8,4.7,72,0.00,,,0.00,WUHU216HW,2013-03-30 14:44:00,
2013-03-30 10:49:00,42.1,33.8,29.90,North,0,4.7,6.7,72,0.00,,,0.00,WUHU216HW,2013-03-30 14:49:00,
2013-03-30 10:54:00,42.5,33.9,29.90,NW,315,3.1,6.7,71,0.00,,,0.00,WUHU216HW,2013-03-30 14:54:00,
2013-03-30 10:59:00,42.7,34.0,29.90,NW,315,7.6,7.6,71,0.00,,,0.00,WUHU216HW,2013-03-30 14:59:00,
2013-03-30 11:04:00,43.0,34.3,29.90,West,270,4.0,7.6,71,0.00,,,0.00,WUHU216HW,2013-03-30 15:04:00,
2013-03-30 11:09:00,43.2,34.2,29.90,NW,315,8.5,8.5,70,0.00,,,0.00,WUHU216HW,2013-03-30 15:09:00,
2013-03-30 11:14:00,43.4,34.7,29.90,NNW,338,2.5,9.8,71,0.00,,,0.00,WUHU216HW,2013-03-30 15:14:00,
2013-03-30 11:19:00,43.6,34.5,29.90,NW,315,2.5,9.8,70,0.00,,,0.00,WUHU216HW,2013-03-30 15:19:00,
2013-03-30 11:24:00,43.7,34.7,29.90,North,0,3.8,8.7,70,0.00,,,0.00,WUHU216HW,2013-03-30 15:24:00,
2013-03-30 11:29:00,44.1,35.0,29.90,NW,315,4.3,8.7,70,0.00,,,0.00,WUHU216HW,2013-03-30 15:29:00,
2013-03-30 11:34:00,44.3,34.7,29.89,WNW,293,2.5,6.7,69,0.00,,,0.00,WUHU216HW,2013-03-30 15:34:00,
2013-03-30 11:39:00,44.6,35.1,29.89,WNW,293,6.5,7.6,69,0.00,,,0.00,WUHU216HW,2013-03-30 15:39:00,
2013-03-30 11:44:00,44.8,34.9,29.89,NW,315,6.0,7.6,68,0.00,,,0.00,WUHU216HW,2013-03-30 15:44:00,
2013-03-30 11:49:00,45.0,35.1,29.89,West,270,4.0,7.6,68,0.00,,,0.00,WUHU216HW,2013-03-30 15:49:00,
2013-03-30 11:54:00,45.2,34.5,29.89,NNW,338,1.6,7.6,66,0.00,,,0.00,WUHU216HW,2013-03-30 15:54:00,
2013-03-30 11:59:00,45.5,34.8,29.89,WNW,293,6.7,6.7,66,0.00,,,0.00,WUHU216HW,2013-03-30 15:59:00,
2013-03-30 12:04:00,45.7,35.0,29.88,West,270,3.6,7.2,66,0.00,,,0.00,WUHU216HW,2013-03-30 16:04:00,
2013-03-30 12:09:00,46.1,34.9,29.88,NW,315,5.6,7.2,65,0.00,,,0.00,WUHU216HW,2013-03-30 16:09:00,
2013-03-30 12:14:00,46.4,34.9,29.88,West,270,4.7,6.7,64,0.00,,,0.00,WUHU216HW,2013-03-30 16:14:00,
2013-03-30 12:19:00,46.4,34.5,29.88,NNW,338,5.4,6.5,63,0.00,,,0.00,WUHU216HW,2013-03-30 16:19:00,
2013-03-30 12:24:00,46.4,34.1,29.88,NW,315,4.7,7.6,62,0.00,,,0.00,WUHU216HW,2013-03-30 16:24:00,
2013-03-30 12:29:00,46.8,34.0,29.88,NNW,338,4.3,7.6,61,0.00,,,0.00,WUHU216HW,2013-03-30 16:29:00,
2013-03-30 12:34:00,47.0,33.8,29.88,WNW,293,7.2,11.4,60,0.00,,,0.00,WUHU216HW,2013-03-30 16:34:00,
2013-03-30 12:39:00,47.2,33.6,29.87,West,270,8.5,11.4,59,0.00,,,0.00,WUHU216HW,2013-03-30 16:39:00,
2013-03-30 12:44:00,47.5,33.9,29.87,West,270,8.9,10.5,59,0.00,,,0.00,WUHU216HW,2013-03-30 16:44:00,
2013-03-30 12:49:00,47.7,33.7,29.87,NNW,338,6.3,10.5,58,0.00,,,0.00,WUHU216HW,2013-03-30 16:49:00,
2013-03-30 12:54:00,47.9,33.4,29.87,WNW,293,6.7,9.6,57,0.00,,,0.00,WUHU216HW,2013-03-30 16:54:00,
2013-03-30 12:59:00,48.1,32.6,29.87,WNW,293,6.3,11.0,55,0.00,,,0.00,WUHU216HW,2013-03-30 16:59:00,
2013-03-30 13:04:00,48.4,33.0,29.86,NNW,338,5.4,11.0,55,0.00,,,0.00,WUHU216HW,2013-03-30 17:04:00,
2013-03-30 13:09:00,48.6,32.7,29.86,NW,315,2.9,11.0,54,0.00,,,0.00,WUHU216HW,2013-03-30 17:09:00,
2013-03-30 13:14:00,48.6,32.1,29.86,West,270,5.6,8.3,53,0.00,,,0.00,WUHU216HW,2013-03-30 17:14:00,
2013-03-30 13:19:00,48.8,31.4,29.86,NNW,338,6.7,12.5,51,0.00,,,0.00,WUHU216HW,2013-03-30 17:19:00,
2013-03-30 13:24:00,48.8,31.9,29.86,NNW,338,6.3,12.5,52,0.00,,,0.00,WUHU216HW,2013-03-30 17:24:00,
2013-03-30 13:29:00,49.0,31.1,29.86,NNW,338,4.7,9.4,50,0.00,,,0.00,WUHU216HW,2013-03-30 17:29:00,
2013-03-30 13:34:00,49.3,31.5,29.86,NNW,338,7.4,9.4,50,0.00,,,0.00,WUHU216HW,2013-03-30 17:34:00,
2013-03-30 13:39:00,49.5,30.1,29.86,WSW,248,4.7,10.5,47,0.00,,,0.00,WUHU216HW,2013-03-30 17:39:00,
2013-03-30 13:44:00,49.5,31.2,29.86,NW,315,4.7,11.4,49,0.00,,,0.00,WUHU216HW,2013-03-30 17:44:00,
2013-03-30 13:49:00,50.0,30.5,29.85,West,270,12.1,12.1,47,0.00,,,0.00,WUHU216HW,2013-03-30 17:49:00,
2013-03-30 13:54:00,50.2,30.7,29.86,WNW,293,5.4,12.1,47,0.00,,,0.00,WUHU216HW,2013-03-30 17:54:00,
2013-03-30 13:59:00,50.2,30.7,29.86,NNW,338,9.6,12.1,47,0.00,,,0.00,WUHU216HW,2013-03-30 17:59:00,
2013-03-30 14:04:00,50.0,29.4,29.85,NW,315,8.5,9.8,45,0.00,,,0.00,WUHU216HW,2013-03-30 18:04:00,
2013-03-30 14:09:00,50.0,28.9,29.85,WSW,248,9.4,11.9,44,0.00,,,0.00,WUHU216HW,2013-03-30 18:09:00,
2013-03-30 14:14:00,50.0,29.4,29.85,NW,315,10.1,11.9,45,0.00,,,0.00,WUHU216HW,2013-03-30 18:14:00,
2013-03-30 14:19:00,50.6,29.9,29.85,NW,315,12.5,12.5,45,0.00,,,0.00,WUHU216HW,2013-03-30 18:19:00,
2013-03-30 14:24:00,50.8,29.0,29.85,NNW,338,10.5,14.1,43,0.00,,,0.00,WUHU216HW,2013-03-30 18:24:00,
2013-03-30 14:29:00,50.8,28.5,29.85,WNW,293,8.7,14.1,42,0.00,,,0.00,WUHU216HW,2013-03-30 18:29:00,
2013-03-30 14:34:00,50.9,29.2,29.85,WNW,293,8.3,13.9,43,0.00,,,0.00,WUHU216HW,2013-03-30 18:34:00,
2013-03-30 14:39:00,51.5,30.2,29.85,NNW,338,6.7,13.9,44,0.00,,,0.00,WUHU216HW,2013-03-30 18:39:00,
2013-03-30 14:44:00,51.5,29.6,29.85,NW,315,9.8,12.1,43,0.00,,,0.00,WUHU216HW,2013-03-30 18:44:00,
2013-03-30 14:49:00,51.3,28.9,29.84,WNW,293,12.1,14.5,42,0.00,,,0.00,WUHU216HW,2013-03-30 18:49:00,
2013-03-30 14:54:00,51.8,30.0,29.85,WNW,293,6.7,14.5,43,0.00,,,0.00,WUHU216HW,2013-03-30 18:54:00,
2013-03-30 14:59:00,52.6,31.1,29.84,NW,315,8.3,12.8,44,0.00,,,0.00,WUHU216HW,2013-03-30 18:59:00,
2013-03-30 15:04:00,52.9,30.9,29.84,West,270,5.1,14.3,43,0.00,,,0.00,WUHU216HW,2013-03-30 19:04:00,
2013-03-30 15:09:00,53.5,31.4,29.84,NW,315,6.5,14.3,43,0.00,,,0.00,WUHU216HW,2013-03-30 19:09:00,
2013-03-30 15:14:00,54.0,30.8,29.84,NW,315,6.5,10.5,41,0.00,,,0.00,WUHU216HW,2013-03-30 19:14:00,
2013-03-30 15:19:00,54.0,30.3,29.84,NW,315,12.8,12.8,40,0.00,,,0.00,WUHU216HW,2013-03-30 19:19:00,
2013-03-30 15:24:00,54.0,30.8,29.83,WNW,293,8.3,12.8,41,0.00,,,0.00,WUHU216HW,2013-03-30 19:24:00,
2013-03-30 15:29:00,54.4,30.5,29.83,NW,315,4.7,12.8,40,0.00,,,0.00,WUHU216HW,2013-03-30 19:29:00,
2013-03-30 15:34:00,54.4,30.5,29.83,West,270,4.5,12.1,40,0.00,,,0.00,WUHU216HW,2013-03-30 19:34:00,
2013-03-30 15:39:00,54.7,30.9,29.83,WSW,248,8.3,11.4,40,0.00,,,0.00,WUHU216HW,2013-03-30 19:39:00,
2013-03-30 15:44:00,54.9,29.6,29.83,NW,315,5.4,13.0,38,0.00,,,0.00,WUHU216HW,2013-03-30 19:44:00,
2013-03-30 15:49:00,54.7,29.4,29.83,WNW,293,8.5,13.0,38,0.00,,,0.00,WUHU216HW,2013-03-30 19:49:00,
2013-03-30 15:54:00,54.4,29.2,29.83,NW,315,11.0,13.2,38,0.00,,,0.00,WUHU216HW,2013-03-30 19:54:00,
2013-03-30 15:59:00,54.9,30.3,29.83,WSW,248,4.0,13.2,39,0.00,,,0.00,WUHU216HW,2013-03-30 19:59:00,
2013-03-30 16:04:00,55.1,29.8,29.82,NW,315,6.7,11.9,38,0.00,,,0.00,WUHU216HW,2013-03-30 20:04:00,
2013-03-30 16:09:00,54.9,29.6,29.82,West,270,7.8,12.8,38,0.00,,,0.00,WUHU216HW,2013-03-30 20:09:00,
2013-03-30 16:14:00,55.6,29.5,29.82,NNW,338,5.1,12.8,37,0.00,,,0.00,WUHU216HW,2013-03-30 20:14:00,
2013-03-30 16:19:00,55.8,30.4,29.82,NW,315,7.8,12.1,38,0.00,,,0.00,WUHU216HW,2013-03-30 20:19:00,
2013-03-30 16:24:00,56.2,30.1,29.81,West,270,7.4,13.2,37,0.00,,,0.00,WUHU216HW,2013-03-30 20:24:00,
2013-03-30 16:29:00,55.8,29.0,29.81,WSW,248,10.1,14.3,36,0.00,,,0.00,WUHU216HW,2013-03-30 20:29:00,
2013-03-30 16:34:00,55.8,30.4,29.81,NW,315,4.9,14.3,38,0.00,,,0.00,WUHU216HW,2013-03-30 20:34:00,
2013-03-30 16:39:00,55.8,29.7,29.81,West,270,8.7,9.8,37,0.00,,,0.00,WUHU216HW,2013-03-30 20:39:00,
2013-03-30 16:44:00,55.8,30.4,29.81,WNW,293,6.9,9.8,38,0.00,,,0.00,WUHU216HW,2013-03-30 20:44:00,
2013-03-30 16:49:00,56.5,30.3,29.81,NW,315,9.2,10.7,37,0.00,,,0.00,WUHU216HW,2013-03-30 20:49:00,
2013-03-30 16:54:00,56.5,30.3,29.80,NW,315,7.6,14.3,37,0.00,,,0.00,WUHU216HW,2013-03-30 20:54:00,
2013-03-30 16:59:00,56.7,30.5,29.81,WNW,293,9.4,14.3,37,0.00,,,0.00,WUHU216HW,2013-03-30 20:59:00,
2013-03-30 17:04:00,56.7,30.5,29.81,NW,315,5.4,13.4,37,0.00,,,0.00,WUHU216HW,2013-03-30 21:04:00,
2013-03-30 17:09:00,56.9,30.0,29.81,NW,315,9.2,13.4,36,0.00,,,0.00,WUHU216HW,2013-03-30 21:09:00,
2013-03-30 17:14:00,56.7,29.8,29.81,West,270,11.4,12.3,36,0.00,,,0.00,WUHU216HW,2013-03-30 21:14:00,
2013-03-30 17:19:00,56.7,28.5,29.81,WNW,293,7.8,12.3,34,0.00,,,0.00,WUHU216HW,2013-03-30 21:19:00,
2013-03-30 17:24:00,56.9,29.3,29.81,WNW,293,7.6,11.9,35,0.00,,,0.00,WUHU216HW,2013-03-30 21:24:00,
2013-03-30 17:29:00,57.1,30.2,29.81,NW,315,7.2,11.9,36,0.00,,,0.00,WUHU216HW,2013-03-30 21:29:00,
2013-03-30 17:34:00,57.4,30.5,29.81,WSW,248,4.7,12.8,36,0.00,,,0.00,WUHU216HW,2013-03-30 21:34:00,
2013-03-30 17:39:00,57.8,30.8,29.80,SW,225,5.8,12.8,36,0.00,,,0.00,WUHU216HW,2013-03-30 21:39:00,
2013-03-30 17:44:00,57.2,28.9,29.80,WNW,293,8.3,10.5,34,0.00,,,0.00,WUHU216HW,2013-03-30 21:44:00,
2013-03-30 17:49:00,56.3,27.4,29.80,West,270,3.8,10.5,33,0.00,,,0.00,WUHU216HW,2013-03-30 21:49:00,
2013-03-30 17:54:00,55.8,27.6,29.80,WNW,293,6.7,9.2,34,0.00,,,0.00,WUHU216HW,2013-03-30 21:54:00,
2013-03-30 17:59:00,55.8,29.0,29.80,NW,315,5.1,9.8,36,0.00,,,0.00,WUHU216HW,2013-03-30 21:59:00,
2013-03-30 18:04:00,56.2,29.3,29.80,NW,315,4.9,9.8,36,0.00,,,0.00,WUHU216HW,2013-03-30 22:04:00,
2013-03-30 18:09:00,56.5,29.7,29.80,NNW,338,8.3,8.7,36,0.00,,,0.00,WUHU216HW,2013-03-30 22:09:00,
2013-03-30 18:14:00,56.5,29.7,29.80,West,270,8.1,9.8,36,0.00,,,0.00,WUHU216HW,2013-03-30 22:14:00,
2013-03-30 18:19:00,55.8,27.6,29.80,NW,315,5.4,10.1,34,0.00,,,0.00,WUHU216HW,2013-03-30 22:19:00,
2013-03-30 18:24:00,55.1,28.4,29.80,West,270,5.4,10.1,36,0.00,,,0.00,WUHU216HW,2013-03-30 22:24:00,
2013-03-30 18:29:00,54.7,28.1,29.80,NW,315,3.4,9.8,36,0.00,,,0.00,WUHU216HW,2013-03-30 22:29:00,
2013-03-30 18:34:00,54.4,28.4,29.79,WNW,293,3.4,9.8,37,0.00,,,0.00,WUHU216HW,2013-03-30 22:34:00,
2013-03-30 18:39:00,54.4,28.4,29.79,West,270,4.0,4.7,37,0.00,,,0.00,WUHU216HW,2013-03-30 22:39:00,
2013-03-30 18:44:00,53.6,27.8,29.79,NW,315,2.5,5.8,37,0.00,,,0.00,WUHU216HW,2013-03-30 22:44:00,
2013-03-30 18:49:00,53.1,28.0,29.78,NW,315,2.7,5.8,38,0.00,,,0.00,WUHU216HW,2013-03-30 22:49:00,
2013-03-30 18:54:00,52.9,27.9,29.79,WSW,248,2.9,4.7,38,0.00,,,0.00,WUHU216HW,2013-03-30 22:54:00,
2013-03-30 18:59:00,52.7,28.4,29.78,NW,315,3.8,3.8,39,0.00,,,0.00,WUHU216HW,2013-03-30 22:59:00,
2013-03-30 19:04:00,52.7,28.4,29.78,WNW,293,2.5,5.4,39,0.00,,,0.00,WUHU216HW,2013-03-30 23:04:00,
2013-03-30 19:09:00,52.7,28.4,29.78,WNW,293,1.8,5.4,39,0.00,,,0.00,WUHU216HW,2013-03-30 23:09:00,
2013-03-30 19:14:00,52.2,27.9,29.78,West,270,2.0,3.4,39,0.00,,,0.00,WUHU216HW,2013-03-30 23:14:00,
2013-03-30 19:19:00,51.7,27.5,29.78,WNW,293,2.2,3.4,39,0.00,,,0.00,WUHU216HW,2013-03-30 23:19:00,
2013-03-30 19:24:00,51.1,26.9,29.78,NW,315,1.1,2.9,39,0.00,,,0.00,WUHU216HW,2013-03-30 23:24:00,
2013-03-30 19:29:00,50.8,26.7,29.78,WNW,293,1.1,2.5,39,0.00,,,0.00,WUHU216HW,2013-03-30 23:29:00,
2013-03-30 19:34:00,50.2,26.8,29.78,WNW,293,1.1,4.0,40,0.00,,,0.00,WUHU216HW,2013-03-30 23:34:00,
2013-03-30 19:39:00,49.7,25.7,29.78,WSW,248,0.0,4.0,39,0.00,,,0.00,WUHU216HW,2013-03-30 23:39:00,
2013-03-30 19:44:00,49.1,25.1,29.77,SW,225,0.0,1.3,39,0.00,,,0.00,WUHU216HW,2013-03-30 23:44:00,
2013-03-30 19:49:00,48.6,25.4,29.77,South,180,0.0,0.7,40,0.00,,,0.00,WUHU216HW,2013-03-30 23:49:00,
2013-03-30 19:54:00,47.9,25.2,29.77,South,180,0.7,0.9,41,0.00,,,0.00,WUHU216HW,2013-03-30 23:54:00,
2013-03-30 19:59:00,47.5,24.9,29.77,SSW,203,0.0,0.9,41,0.00,,,0.00,WUHU216HW,2013-03-30 23:59:00,
2013-03-30 20:04:00,47.0,24.9,29.77,South,180,1.1,1.1,42,0.00,,,0.00,WUHU216HW,2013-03-31 00:04:00,
2013-03-30 20:09:00,46.4,25.0,29.77,SSE,158,0.0,1.1,43,0.00,,,0.00,WUHU216HW,2013-03-31 00:09:00,
2013-03-30 20:14:00,45.9,24.6,29.77,SSE,158,0.9,1.1,43,0.00,,,0.00,WUHU216HW,2013-03-31 00:14:00,
2013-03-30 20:19:00,45.4,24.6,29.77,South,180,0.7,0.9,44,0.00,,,0.00,WUHU216HW,2013-03-31 00:19:00,
2013-03-30 20:24:00,45.0,24.9,29.77,SSE,158,0.4,1.1,45,0.00,,,0.00,WUHU216HW,2013-03-31 00:24:00,
2013-03-30 20:29:00,44.5,24.3,29.77,SSE,158,1.3,1.3,45,0.00,,,0.00,WUHU216HW,2013-03-31 00:29:00,
2013-03-30 20:34:00,44.1,24.6,29.77,SSE,158,1.1,1.6,46,0.00,,,0.00,WUHU216HW,2013-03-31 00:34:00,
2013-03-30 20:39:00,43.6,24.0,29.77,SE,135,0.0,1.6,46,0.00,,,0.00,WUHU216HW,2013-03-31 00:39:00,
2013-03-30 20:44:00,43.2,24.3,29.77,SSE,158,0.0,1.1,47,0.00,,,0.00,WUHU216HW,2013-03-31 00:44:00,
2013-03-30 20:49:00,42.8,23.9,29.77,SSE,158,0.0,0.0,47,0.00,,,0.00,WUHU216HW,2013-03-31 00:49:00,
2013-03-30 20:54:00,42.5,24.1,29.77,SSE,158,0.0,0.0,48,0.00,,,0.00,WUHU216HW,2013-03-31 00:54:00,
2013-03-30 20:59:00,42.1,24.3,29.77,SSE,158,0.0,0.0,49,0.00,,,0.00,WUHU216HW,2013-03-31 00:59:00,
2013-03-30 21:04:00,41.6,23.8,29.77,SSE,158,0.0,0.0,49,0.00,,,0.00,WUHU216HW,2013-03-31 01:04:00,
2013-03-30 21:09:00,41.2,23.4,29.76,SSE,158,0.0,0.4,49,0.00,,,0.00,WUHU216HW,2013-03-31 01:09:00,
2013-03-30 21:14:00,40.9,23.6,29.77,SSE,158,0.0,0.4,50,0.00,,,0.00,WUHU216HW,2013-03-31 01:14:00,
2013-03-30 21:19:00,40.5,23.8,29.76,SSE,158,0.0,0.4,51,0.00,,,0.00,WUHU216HW,2013-03-31 01:19:00,
2013-03-30 21:24:00,40.1,23.4,29.76,SSE,158,0.0,0.4,51,0.00,,,0.00,WUHU216HW,2013-03-31 01:24:00,
2013-03-30 21:29:00,39.8,23.5,29.76,SSE,158,0.0,0.0,52,0.00,,,0.00,WUHU216HW,2013-03-31 01:29:00,
2013-03-30 21:34:00,39.4,23.1,29.76,SSE,158,2.2,2.7,52,0.00,,,0.00,WUHU216HW,2013-03-31 01:34:00,
2013-03-30 21:39:00,39.1,23.3,29.76,SSE,158,1.6,2.7,53,0.00,,,0.00,WUHU216HW,2013-03-31 01:39:00,
2013-03-30 21:44:00,38.7,23.0,29.76,SSE,158,1.6,3.4,53,0.00,,,0.00,WUHU216HW,2013-03-31 01:44:00,
2013-03-30 21:49:00,38.5,23.2,29.76,South,180,1.6,3.4,54,0.00,,,0.00,WUHU216HW,2013-03-31 01:49:00,
2013-03-30 21:54:00,38.3,23.0,29.76,South,180,2.7,3.4,54,0.00,,,0.00,WUHU216HW,2013-03-31 01:54:00,
2013-03-30 21:59:00,38.3,23.0,29.75,South,180,2.7,3.4,54,0.00,,,0.00,WUHU216HW,2013-03-31 01:59:00,
2013-03-30 22:04:00,38.3,23.0,29.75,SSE,158,3.1,4.0,54,0.00,,,0.00,WUHU216HW,2013-03-31 02:04:00,
2013-03-30 22:09:00,38.3,23.0,29.75,South,180,2.9,4.0,54,0.00,,,0.00,WUHU216HW,2013-03-31 02:09:00,
2013-03-30 22:14:00,38.3,23.0,29.75,South,180,0.4,3.1,54,0.00,,,0.00,WUHU216HW,2013-03-31 02:14:00,
2013-03-30 22:19:00,38.3,23.0,29.75,SSE,158,0.4,3.1,54,0.00,,,0.00,WUHU216HW,2013-03-31 02:19:00,
2013-03-30 22:24:00,38.5,23.2,29.75,South,180,2.5,3.4,54,0.00,,,0.00,WUHU216HW,2013-03-31 02:24:00,
2013-03-30 22:29:00,38.3,23.0,29.75,SE,135,2.0,3.4,54,0.00,,,0.00,WUHU216HW,2013-03-31 02:29:00,
2013-03-30 22:34:00,38.2,23.3,29.74,SSE,158,2.0,3.4,55,0.00,,,0.00,WUHU216HW,2013-03-31 02:34:00,
2013-03-30 22:39:00,38.2,23.3,29.74,SSE,158,1.6,3.4,55,0.00,,,0.00,WUHU216HW,2013-03-31 02:39:00,
2013-03-30 22:44:00,38.2,23.3,29.74,SSE,158,1.1,2.9,55,0.00,,,0.00,WUHU216HW,2013-03-31 02:44:00,
2013-03-30 22:49:00,38.0,23.1,29.74,South,180,2.7,3.4,55,0.00,,,0.00,WUHU216HW,2013-03-31 02:49:00,
2013-03-30 22:54:00,37.8,23.4,29.74,SSE,158,1.3,3.4,56,0.00,,,0.00,WUHU216HW,2013-03-31 02:54:00,
2013-03-30 22:59:00,37.8,23.4,29.73,SSE,158,1.3,3.8,56,0.00,,,0.00,WUHU216HW,2013-03-31 02:59:00,
2013-03-30 23:04:00,37.6,23.3,29.73,South,180,2.5,3.8,56,0.00,,,0.00,WUHU216HW,2013-03-31 03:04:00,
2013-03-30 23:09:00,37.6,23.3,29.73,SSE,158,1.8,3.4,56,0.00,,,0.00,WUHU216HW,2013-03-31 03:09:00,
2013-03-30 23:14:00,37.6,23.3,29.73,SSW,203,2.2,3.8,56,0.00,,,0.00,WUHU216HW,2013-03-31 03:14:00,
2013-03-30 23:19:00,37.4,23.6,29.73,South,180,3.4,3.8,57,0.00,,,0.00,WUHU216HW,2013-03-31 03:19:00,
2013-03-30 23:24:00,37.4,23.6,29.73,NNW,338,1.1,3.4,57,0.00,,,0.00,WUHU216HW,2013-03-31 03:24:00,
2013-03-30 23:29:00,37.4,23.6,29.72,SE,135,2.5,4.0,57,0.00,,,0.00,WUHU216HW,2013-03-31 03:29:00,
2013-03-30 23:34:00,37.4,23.6,29.72,SSW,203,4.9,4.9,57,0.00,,,0.00,WUHU216HW,2013-03-31 03:34:00,
2013-03-30 23:39:00,37.4,23.9,29.72,SSE,158,1.3,4.9,58,0.00,,,0.00,WUHU216HW,2013-03-31 03:39:00,
2013-03-30 23:44:00,37.6,24.1,29.72,South,180,2.7,4.5,58,0.00,,,0.00,WUHU216HW,2013-03-31 03:44:00,
2013-03-30 23:49:00,37.8,24.3,29.72,SSE,158,1.8,7.4,58,0.00,,,0.00,WUHU216HW,2013-03-31 03:49:00,
2013-03-30 23:54:00,38.0,24.5,29.72,SSW,203,5.4,7.4,58,0.00,,,0.00,WUHU216HW,2013-03-31 03:54:00,
2013-03-30 23:59:00,38.0,24.5,29.72,SSW,203,5.1,6.5,58,0.00,,,0.00,WUHU216HW,2013-03-31 03:59:00,